La Palma > ESTACION METEOROLÓGICA Barlovento

DATOS ACTUALES Online

Ultima actulizacion 14 minutos

14.9 ºC

Temperatura

84

Humedad (%)

1018.9

Presión (mb)

0

Precipitación (mm)

14.5 WNW

Viento (Km/h)

DATOS DIARIOS

Temperatura últimas 24 horas (ºC)

Humedad últimas 24 horas (%)

Presión atmosférica últimas 24 horas (mb)

Precipitaciones últimas 23 horas (mm)

Viento últimas 24 horas (Km/h)

Hora Temperatura (°C) ºC Precipitación (mm) mm Presión (mb) mb Humedad (%) % Viento (Km/h) km/h
29 - 00:00 15.1 0 1020 82 20.9 WNW
29 - 01:00 15.3 0 1019 88 17.7 NNW
29 - 02:00 14.9 0 1019 92 14.5 NW
29 - 03:00 14.8 0 1018 90 3.2 WNW
29 - 04:00 14.8 0 1018 92 3.2 WNW
29 - 05:00 14.4 0 1018 92 6.4 WNW
29 - 06:00 14.6 0 1018 83 4.8 WSW
29 - 07:00 14.7 0 1018 88 1.6 WNW
29 - 08:00 14.7 0 1019 89 6.4 W
29 - 09:00 15.1 0 1019 87 4.8 NNW
29 - 10:00 15.6 0 1019 83 3.2 WNW
29 - 11:00 15.6 0 1019 86 17.7 NNW
29 - 12:00 15.7 0 1019 86 8 NE
29 - 13:00 16.1 0 1019 87 20.9 N
29 - 14:00 15.7 0 1019 86 9.7 N
29 - 15:00 15.8 0 1019 87 16.1 NNW
29 - 16:00 16 0 1018 85 19.3 NNW
29 - 17:00 15.9 0 1018 89 9.7 NNW
29 - 18:00 16.1 0 1018 87 12.9 NNW
29 - 19:00 16.3 0 1018 89 14.5 NW
29 - 20:00 15.3 0 1018 90 16.1 W
29 - 21:00 15.6 0 1019 80 14.5 NW
29 - 22:00 15.1 0 1019 86 16.1 NW
29 - 23:00 14.8 0 1019 90 16.1 NW
30 - 00:00 14.9 0 1019 84 14.5 WNW
Apalmet utiliza cookies propias y de terceros para mejorar la usabilidad y la experiencia web. Política de cookies.